DW7038 Weather Reports


Display with metric or nautical units.
time (UTC)temp
F
wind
direction
speed
MPH
gust
MPH
rain 1hr
in
rain 24hr
in
rain mn
in
humidity
%
barometer
mb
20191019093049 57 126 2.0 7.0 0.00 0.00 0.00 89 1011.0
20191019091532 58 127 1.0 4.0 0.00 0.00 0.00 87 1011.0
20191019090101 58 128 0.0 2.0 0.00 0.00 0.00 86 1010.9
20191019084547 59 127 0.0 0.0 0.00 0.00 0.00 84 1010.9
20191019083028 59 128 0.0 0.0 0.00 0.00 0.00 83 1010.9
20191019081602 59 127 0.0 5.0 0.00 0.00 0.00 82 1010.9
20191019080055 59 130 0.0 7.0 0.00 0.00 0.00 81 1010.9
20191019074556 59 102 0.0 7.0 0.00 0.00 0.00 80 1011.2
20191019073042 59 155 0.0 9.0 0.00 0.00 0.00 79 1011.2
20191019071540 59 111 2.0 8.0 0.00 0.00 0.00 79 1011.3
20191019070037 59 91 2.0 10.0 0.00 0.00 0.00 78 1011.3
20191019064524 59 98 2.0 8.0 0.00 0.00 0.00 76 1011.4
20191019063015 59 100 1.0 10.0 0.00 0.00 0.00 75 1011.6
20191019061512 59 107 2.0 8.0 0.00 0.00 0.00 74 1011.9
20191019060026 59 95 1.0 8.0 0.00 0.00 0.00 73 1012.1
20191019054519 59 161 2.0 9.0 0.00 0.00 0.00 72 1012.2
20191019053229 59 130 0.0 9.0 0.00 0.00 0.00 71 1012.5
20191019051617 59 119 1.0 7.0 0.00 0.00 0.00 71 1012.7
20191019050144 59 93 1.0 7.0 0.00 0.00 0.00 70 1012.7
20191019044623 59 142 1.0 9.0 0.00 0.00 0.00 69 1012.8
20191019043136 59 125 0.0 9.0 0.00 0.00 0.00 69 1013.1
20191019041609 59 123 1.0 6.0 0.00 0.00 0.00 68 1013.2
20191019040111 60 141 4.0 10.0 0.00 0.00 0.00 67 1013.1
20191019034650 59 153 3.0 9.0 0.00 0.00 0.00 68 1013.3
20191019033205 59 121 2.0 8.0 0.00 0.00 0.00 68 1013.4
20191019031622 59 101 1.0 8.0 0.00 0.00 0.00 69 1013.2
20191019030145 59 96 3.0 10.0 0.00 0.00 0.00 69 1013.1
20191019024611 59 111 4.0 9.0 0.00 0.00 0.00 70 1013.0
20191019023154 58 98 0.0 4.0 0.00 0.00 0.00 72 1012.9
20191019021732 58 98 0.0 4.0 0.00 0.00 0.00 73 1012.9
20191019020208 58 97 0.0 2.0 0.00 0.00 0.00 74 1012.9
20191019014557 57 97 0.0 3.0 0.00 0.00 0.00 74 1012.8
20191019013219 57 97 0.0 4.0 0.00 0.00 0.00 74 1012.8
20191019011728 57 94 0.0 4.0 0.00 0.00 0.00 74 1012.7
20191019010140 57 94 0.0 4.0 0.00 0.00 0.00 74 1012.8
20191019004700 57 93 0.0 4.0 0.00 0.00 0.00 73 1012.8
20191019003109 58 92 0.0 4.0 0.00 0.00 0.00 73 1012.8
20191019001740 58 78 0.0 2.0 0.00 0.00 0.00 74 1012.7
20191019000057 58 78 0.0 3.0 0.00 0.00 0.00 73 1012.8
20191018234629 58 78 0.0 0.0 0.00 0.00 0.00 72 1012.9
20191018233052 58 78 0.0 1.0 0.00 0.00 0.00 72 1012.9
20191018231601 59 78 0.0 0.0 0.00 0.00 0.00 71 1013.0
20191018230139 59 78 0.0 0.0 0.00 0.00 0.00 72 1013.1
20191018224656 60 78 0.0 0.0 0.00 0.00 0.00 70 1013.2
20191018223133 60 78 0.0 0.0 0.00 0.00 0.00 68 1013.3
20191018221639 61 78 0.0 4.0 0.00 0.00 0.00 68 1012.9
20191018220129 61 98 1.0 8.0 0.00 0.00 0.00 66 1012.8
20191018214708 62 98 1.0 6.0 0.00 0.00 0.00 64 1013.1
20191018213116 62 103 0.0 3.0 0.00 0.00 0.00 66 1013.4
20191018211609 63 103 1.0 4.0 0.00 0.00 0.00 64 1013.6
20191018210102 63 86 0.0 0.0 0.00 0.00 0.00 62 1013.9
20191018204715 63 85 0.0 6.0 0.00 0.00 0.00 62 1014.2
20191018203123 64 84 0.0 7.0 0.00 0.00 0.00 59 1014.2
20191018201628 64 186 0.0 5.0 0.00 0.00 0.00 57 1014.2
20191018200040 64 88 0.0 8.0 0.00 0.00 0.00 59 1014.0
20191018194552 64 151 1.0 8.0 0.00 0.00 0.00 56 1013.9
20191018193111 64 108 0.0 4.0 0.00 0.00 0.00 58 1013.9
20191018191635 63 118 0.0 5.0 0.00 0.00 0.00 57 1013.9
20191018190131 63 98 0.0 4.0 0.00 0.00 0.00 57 1013.9
20191018184606 63 85 0.0 4.0 0.00 0.00 0.00 57 1014.2
20191018183050 62 117 0.0 7.0 0.00 0.00 0.00 58 1014.3
20191018181520 62 150 0.0 3.0 0.00 0.00 0.00 60 1014.3
20191018180035 61 98 2.0 8.0 0.00 0.00 0.00 60 1014.6
20191018174524 61 103 4.0 8.0 0.00 0.00 0.00 61 1015.0
20191018173025 60 136 2.0 8.0 0.00 0.00 0.00 61 1015.2
20191018171508 60 118 1.0 9.0 0.00 0.00 0.00 62 1015.4
20191018170010 59 140 0.0 5.0 0.00 0.00 0.00 63 1015.5
20191018164507 59 95 0.0 8.0 0.00 0.00 0.00 63 1015.7
20191018163003 58 138 0.0 10.0 0.00 0.00 0.00 65 1015.8
20191018161816 58 101 0.0 8.0 0.00 0.00 0.00 67 1016.1
20191018160232 57 108 0.0 4.0 0.00 0.00 0.00 67 1016.3
20191018154757 56 127 1.0 8.0 0.00 0.00 0.00 69 1016.4
20191018153151 55 155 0.0 5.0 0.00 0.00 0.00 70 1016.5
20191018151626 55 127 0.0 5.0 0.00 0.00 0.00 70 1016.5
20191018150140 54 180 1.0 7.0 0.00 0.00 0.00 73 1016.6
20191018144620 53 96 0.0 5.0 0.00 0.00 0.00 76 1016.2
20191018143102 51 120 0.0 5.0 0.00 0.00 0.00 79 1016.2
20191018141537 50 109 3.0 10.0 0.00 0.00 0.00 78 1016.0
20191018140105 49 105 1.0 8.0 0.00 0.00 0.00 80 1015.9
20191018134540 49 109 1.0 6.0 0.00 0.00 0.00 80 1016.0
20191018133038 48 91 3.0 10.0 0.00 0.00 0.00 81 1015.4
20191018131535 48 90 3.0 9.0 0.00 0.00 0.00 82 1015.6
20191018130042 47 71 3.0 7.0 0.00 0.00 0.00 82 1015.7
20191018124532 46 88 0.0 4.0 0.00 0.00 0.00 83 1015.5
20191018123007 46 88 0.0 6.0 0.00 0.00 0.00 84 1015.1
20191018121507 45 95 0.0 0.0 0.00 0.00 0.00 86 1014.5
20191018120246 45 84 0.0 0.0 0.00 0.00 0.00 87 1014.5
20191018114642 44 70 0.0 0.0 0.00 0.00 0.00 87 1014.5
20191018113217 45 70 0.0 0.0 0.00 0.00 0.00 86 1014.4
20191018111654 45 70 0.0 0.0 0.00 0.00 0.00 85 1014.5
20191018110153 46 70 0.0 0.0 0.00 0.00 0.00 83 1014.3
20191018104721 47 70 0.0 0.0 0.00 0.00 0.00 82 1014.1
20191018103159 47 70 0.0 0.0 0.00 0.00 0.00 81 1013.9
20191018101655 47 70 0.0 0.0 0.00 0.00 0.00 81 1013.8
20191018100144 47 70 0.0 0.0 0.00 0.00 0.00 80 1013.6
20191018094642 47 70 0.0 0.0 0.00 0.00 0.00 80 1013.9